Location: Karcze
(52.0945°N, 22.4786°E)
Time: 20:15:46
(UTC+00:00)

Transit 2A Rocket - Pass Details

Date: 28 July 2021
Orbit: 586 x 917 km, 66.7° (Epoch: 27 September)

Event Time Altitude Azimuth Distance (km) Brightness Sun altitude
Rises 15:00:13 0° 241° (WSW) 2,880 9.0 29.5°
Reaches altitude 10° 15:02:30 10° 249° (WSW) 2,012 8.7 29.1°
Maximum altitude 15:06:48 42° 320° (NW) 957 6.3 28.5°
Drops below altitude 10° 15:11:31 10° 32° (NNE) 2,201 7.1 27.8°
Sets 15:14:07 0° 39° (NE) 3,184 7.8 27.4°
